This is the latest recevied weather packets stored in our database for station/object KI5RAB. If no packets are shown the sender has not sent any weather packets the latest 10 day(s).
| Time | Temp. | Humidity | Pressure | Rain* | Wind** | Luminosity | Snow |
|---|---|---|---|---|---|---|---|
| 1777567740 | 20° C | 84% | 1015.6 hPa | 0 mm | - | 195 W/m² | - |
| 1777567437 | 20° C | 85% | 1016 hPa | 0 mm | - | 242 W/m² | - |
| 1777567135 | 20° C | 84% | 1015.8 hPa | 0 mm | - | 203 W/m² | - |
| 1777566833 | 20° C | 85% | 1015.7 hPa | 0 mm | - | 228 W/m² | - |
| 1777566530 | 19.44° C | 85% | 1015.7 hPa | 0 mm | - | 157 W/m² | - |
| 1777566228 | 20° C | 85% | 1015.9 hPa | 0 mm | - | 181 W/m² | - |
| 1777565924 | 20° C | 85% | 1015.7 hPa | 0 mm | - | 233 W/m² | - |
| 1777565620 | 19.44° C | 86% | 1015.8 hPa | 0 mm | - | 181 W/m² | - |
| 1777565317 | 19.44° C | 87% | 1015.4 hPa | 0 mm | - | 137 W/m² | - |
| 1777565012 | 19.44° C | 87% | 1015.7 hPa | 0 mm | - | 132 W/m² | - |
| 1777564708 | 19.44° C | 87% | 1015.8 hPa | 0 mm | - | 112 W/m² | - |
| 1777564404 | 19.44° C | 87% | 1015.6 hPa | 0 mm | - | 138 W/m² | - |
| 1777564100 | 19.44° C | 87% | 1015.9 hPa | 0 mm | - | 131 W/m² | - |
| 1777563796 | 19.44° C | 87% | 1016 hPa | 0 mm | - | 91 W/m² | - |
| 1777563492 | 19.44° C | 86% | 1015.7 hPa | 0 mm | - | 95 W/m² | - |
| 1777563191 | 20° C | 86% | 1015.6 hPa | 0 mm | - | 109 W/m² | - |
| 1777562889 | 19.44° C | 87% | 1015.7 hPa | 0 mm | - | 145 W/m² | - |
| 1777562585 | 19.44° C | 86% | 1015.5 hPa | 0 mm | - | 148 W/m² | - |
| 1777562284 | 19.44° C | 86% | 1015.5 hPa | 0 mm | - | 161 W/m² | - |
| 1777561980 | 19.44° C | 86% | 1015 hPa | 0 mm | - | 233 W/m² | - |
| 1777561678 | 18.89° C | 87% | 1015.1 hPa | 0 mm | - | 230 W/m² | - |
| 1777561373 | 18.89° C | 87% | 1015 hPa | 0 mm | - | 234 W/m² | - |
| 1777561068 | 18.89° C | 87% | 1015.4 hPa | 0 mm | - | 172 W/m² | - |
| 1777560764 | 18.89° C | 88% | 1015.8 hPa | 0 mm | - | 132 W/m² | - |
| 1777560461 | 18.33° C | 89% | 1015.7 hPa | 0 mm | - | 98 W/m² | - |
* Rain latest hour (hover to see other rain measurements)
** Current wind speed in m/s (hover to see current wind gust speed)